Theta_e
307 306 306 306 306 306 306 306 306 304 303 302 301 300 300 299 300 300 299 299 299 300 299 300 303 304 304 304 303 303 305 308 309 307 307 306 306 306 305 305 304 304 305 305 304 304 305 305 305 305 307 306 307 309 308 308 309 311 313 312 311 312 312 314 315 315 316 315 314 315 316 317 319 317 315 317 319 320 323 327 330 332 331 331 332 333 334 335
306 306 306 306 306 306 306 305 305 304 303 302 302 301 300 300 300 299 299 300 299 300 299 300 302 304 305 304 304 304 303 308 309 308 307 304 304 305 304 305 305 305 306 305 304 305 305 305 305 306 307 307 306 308 309 309 309 311 312 312 312 311 312 312 312 313 313 313 312 312 314 315 316 316 315 317 320 319 321 326 327 332 334 332 333 334 334 335
306 306 306 306 306 306 306 305 305 305 303 302 302 301 301 300 300 300 299 299 300 300 299 300 302 304 304 303 304 303 304 309 309 308 307 304 304 305 304 305 305 306 306 305 305 305 305 305 305 306 308 308 307 308 311 310 309 310 309 309 311 310 309 308 311 312 311 311 311 310 310 312 314 315 315 317 319 318 319 322 324 330 333 333 334 334 335 335
305 305 306 306 306 306 306 305 304 305 304 302 302 301 301 301 300 300 299 300 300 300 300 299 301 303 304 304 304 304 308 312 308 307 306 304 304 305 305 305 306 307 307 306 306 305 306 306 306 306 307 308 308 308 309 309 309 309 306 306 308 308 308 307 309 312 311 311 310 309 309 310 313 312 313 316 317 318 319 319 321 328 329 330 333 334 335 334
304 304 305 305 306 306 306 306 305 305 304 303 302 302 301 301 300 300 300 300 300 300 300 299 300 302 303 304 303 307 313 313 307 306 305 304 305 305 305 306 306 307 307 307 307 306 307 307 307 307 308 308 309 309 308 308 308 306 305 305 307 306 307 307 307 310 311 309 309 309 309 309 309 310 311 314 314 316 319 317 317 323 325 325 326 331 334 334
304 304 304 305 305 305 306 305 305 304 304 303 302 302 301 301 301 300 300 300 300 300 300 300 300 301 303 303 303 309 313 309 307 307 304 304 305 304 305 306 306 307 308 308 307 307 307 307 307 306 307 308 309 308 308 308 308 307 306 306 308 308 307 307 306 310 310 308 309 308 309 308 308 308 309 310 311 312 316 315 314 315 319 319 318 325 332 334
305 304 304 304 304 305 305 305 304 303 304 304 302 302 301 301 301 300 300 300 300 300 300 300 300 300 302 303 306 313 312 307 307 306 304 304 304 304 305 306 306 306 308 308 308 307 307 306 306 306 306 308 308 308 309 309 309 308 308 308 310 310 309 308 307 308 308 308 309 309 309 309 308 308 308 308 309 311 313 313 314 314 314 316 317 320 325 330
305 304 304 304 303 304 305 305 304 303 303 303 303 302 301 301 301 300 300 300 300 300 301 300 300 300 301 305 311 315 310 306 307 305 304 304 304 304 305 306 306 306 309 309 308 307 307 307 306 306 306 307 307 308 310 309 310 310 310 311 311 310 310 309 308 308 309 309 310 310 310 309 309 309 308 308 309 311 312 311 312 313 313 315 318 320 321 324
304 304 304 304 303 304 305 305 304 303 304 304 303 303 302 301 301 301 300 300 300 300 300 300 300 300 303 310 314 314 308 306 306 304 304 304 303 304 305 306 305 306 309 309 309 307 307 307 306 306 305 306 306 307 309 309 310 311 311 311 310 310 309 309 310 310 310 310 310 311 310 310 310 311 310 310 310 310 310 310 312 312 313 313 315 318 319 320
304 304 304 304 304 304 304 304 303 302 303 304 304 303 302 301 300 300 300 300 300 300 300 300 300 299 303 310 313 311 307 305 306 304 303 303 304 305 305 305 305 306 308 309 310 308 307 307 307 306 305 306 305 307 309 309 310 310 310 310 309 310 310 310 310 310 310 310 311 310 310 310 310 310 309 310 311 312 311 311 312 311 310 310 312 313 313 317
304 304 304 304 304 304 304 304 302 302 303 304 304 303 302 301 300 300 300 300 300 300 300 300 300 299 303 310 312 311 306 305 306 305 304 304 305 305 304 304 305 307 308 309 310 308 307 307 307 307 307 307 306 308 311 310 310 309 309 310 310 311 311 311 311 311 311 310 311 311 310 310 310 310 309 309 311 313 314 313 314 313 310 310 313 312 310 314
304 304 304 304 304 304 304 304 303 302 302 303 303 302 302 300 300 300 300 300 300 300 299 300 300 299 306 312 311 308 305 305 305 304 305 305 305 305 305 305 305 306 307 308 309 308 307 306 306 307 308 307 307 309 311 310 309 309 310 310 311 312 313 314 313 312 312 311 311 311 310 309 310 310 309 309 310 311 314 315 314 314 312 311 312 315 313 314
304 304 304 304 304 304 304 304 303 302 302 302 301 301 301 300 300 300 300 300 300 300 299 300 299 300 309 314 308 304 305 305 304 304 306 305 305 305 306 306 306 306 306 307 308 307 306 306 306 307 307 307 307 309 310 310 310 310 311 311 312 313 314 315 314 313 313 313 311 309 310 310 310 311 311 312 311 311 311 310 310 310 311 310 309 312 315 316
303 304 304 304 304 304 304 303 302 302 301 301 301 300 300 299 300 299 300 300 299 300 300 299 300 303 311 313 306 303 304 304 305 306 305 303 304 305 306 307 306 307 306 306 307 306 306 306 306 307 308 307 307 308 309 310 312 312 313 313 312 313 315 314 314 315 313 313 311 309 310 310 310 311 313 313 313 312 310 308 309 309 310 310 309 309 311 314
303 304 304 304 304 303 303 302 302 302 301 301 300 300 300 299 300 299 300 299 299 300 298 302 305 306 310 311 306 303 303 305 306 305 303 303 304 305 306 307 307 307 306 307 307 306 306 306 307 308 310 308 308 309 311 313 314 313 315 317 315 314 316 314 314 315 313 313 311 310 311 311 310 310 313 314 313 313 311 310 309 309 311 311 311 310 310 311
303 304 304 304 304 303 302 301 301 301 300 300 299 299 299 299 299 299 300 299 300 299 300 307 311 307 309 311 308 305 305 305 304 304 303 304 305 305 306 307 307 308 308 308 307 306 306 306 308 309 309 309 310 311 314 316 316 315 315 317 316 316 315 314 314 314 314 313 312 311 311 311 310 310 313 313 313 314 311 310 309 310 312 311 311 311 312 312
303 303 304 304 303 302 300 300 301 300 300 300 299 300 300 300 300 299 300 299 299 300 301 306 308 308 310 309 307 307 305 304 303 304 304 305 305 305 306 307 308 309 309 309 308 307 307 307 309 309 309 310 312 314 316 318 318 316 315 316 315 314 314 314 314 314 314 314 312 312 311 311 310 309 311 311 313 314 311 310 310 310 311 311 311 311 312 313
303 304 304 303 303 302 300 299 300 300 300 300 299 300 300 300 299 300 302 303 303 304 305 304 306 311 313 307 306 306 304 304 304 304 306 306 306 306 307 308 308 309 310 311 309 308 309 309 310 311 311 312 313 315 317 317 317 316 316 316 315 314 313 313 314 313 313 313 312 312 311 311 311 310 310 310 312 313 311 311 311 310 310 310 310 310 311 311
303 304 304 303 303 302 300 299 300 300 300 299 300 301 303 304 303 303 306 308 310 312 312 309 308 312 312 307 306 305 304 306 304 305 307 306 307 308 307 308 309 309 312 314 312 310 310 311 312 314 315 314 314 315 317 316 315 316 315 315 315 314 313 313 313 313 313 313 312 312 312 312 311 311 311 311 311 311 310 310 311 310 310 310 310 310 310 311
304 304 304 303 303 301 299 299 300 301 301 299 303 308 310 311 311 310 308 309 311 310 309 310 308 309 309 307 306 305 306 307 306 308 308 306 307 309 309 310 311 312 313 315 315 311 311 313 315 315 316 315 314 315 315 315 314 314 315 315 315 315 314 313 313 313 313 313 312 311 311 311 311 311 310 310 311 310 310 310 310 310 309 309 310 309 309 310
303 304 304 303 302 301 299 299 300 301 301 300 306 312 311 310 313 311 307 308 307 304 305 307 305 305 306 305 304 304 307 308 308 309 308 306 308 310 311 311 311 312 313 314 313 312 312 315 316 315 315 315 314 314 314 314 314 314 314 314 314 314 313 313 313 313 313 313 313 312 311 311 310 310 310 310 310 310 310 310 310 310 309 310 309 309 308 308
303 304 303 302 302 301 299 299 301 301 300 301 306 310 307 305 305 303 303 308 307 304 304 305 305 305 305 306 304 304 308 311 310 310 308 307 310 312 311 309 310 312 311 312 314 314 314 314 313 314 315 314 314 315 314 314 314 314 313 313 313 313 313 314 313 313 313 313 312 311 311 311 310 310 309 309 309 310 310 310 310 309 309 310 309 309 308 307
303 304 303 302 302 300 299 300 301 300 301 305 308 309 305 302 299 298 302 308 309 306 307 308 308 308 309 309 306 304 310 310 307 310 309 309 310 311 309 309 311 311 310 313 315 315 313 311 312 314 314 314 314 314 314 314 314 314 313 313 313 313 314 315 314 314 314 313 312 311 311 311 310 310 310 309 309 309 310 311 311 311 309 309 310 310 308 308
304 303 302 302 301 299 299 300 302 302 302 304 306 304 301 299 298 301 306 310 309 308 307 306 306 308 310 308 304 306 310 308 306 309 309 308 310 310 310 311 311 311 312 313 314 314 313 312 312 313 314 313 313 312 312 313 313 313 313 313 313 313 315 315 314 314 313 312 312 311 312 311 311 310 310 310 310 309 310 310 311 311 310 310 310 310 308 309
303 303 303 302 300 299 299 301 305 305 302 303 303 299 298 300 299 301 307 311 310 310 308 305 306 309 307 305 305 307 309 307 307 309 307 307 309 310 310 309 310 312 312 313 313 312 312 312 313 313 313 311 312 312 311 312 313 313 313 314 314 315 315 315 314 313 312 313 312 311 312 313 311 310 310 310 311 311 310 310 310 310 310 310 309 310 307 309
303 303 302 301 299 298 300 305 308 304 304 307 303 298 298 300 299 300 307 312 311 312 311 309 311 309 306 307 307 305 309 311 308 307 306 308 308 307 308 309 311 312 312 313 313 311 310 312 314 313 312 310 310 311 311 311 313 314 314 314 315 315 315 314 313 313 312 312 312 311 312 313 311 310 309 309 310 310 310 310 309 309 309 309 309 310 307 310
303 303 302 300 298 299 304 308 305 302 308 308 300 297 299 299 298 301 310 317 314 311 310 310 310 306 306 308 306 305 311 312 309 307 307 309 308 307 309 310 310 311 312 312 312 313 313 312 314 313 311 310 309 311 312 312 314 316 314 314 315 314 313 313 312 312 312 311 312 310 311 312 312 310 309 309 310 310 310 310 310 309 309 308 309 309 307 312
303 302 301 299 298 301 305 305 303 304 308 304 298 299 299 298 299 303 314 321 313 308 310 311 308 305 306 307 306 306 309 309 310 310 307 307 308 309 310 310 310 311 311 311 311 313 312 311 312 312 311 310 309 311 313 313 314 315 314 314 314 313 313 312 312 312 311 312 313 312 311 312 312 310 309 309 310 310 310 310 310 309 309 308 309 309 306 312
303 302 301 299 298 301 302 303 306 307 304 299 298 299 298 299 302 307 316 318 310 307 310 310 308 307 307 308 308 307 306 307 310 308 306 307 308 308 310 310 310 311 310 310 310 310 310 312 314 313 311 310 310 311 311 312 313 313 313 313 313 312 312 311 312 312 312 313 314 312 311 312 312 311 310 311 310 310 310 310 310 309 310 308 308 309 306 310
303 302 300 298 298 301 301 302 305 305 301 298 299 299 298 302 308 314 318 315 311 310 309 309 309 309 308 307 308 308 307 307 308 308 308 310 309 307 308 309 310 311 310 310 310 310 310 312 313 312 311 310 309 310 310 311 312 312 313 313 312 312 311 311 312 312 313 313 313 312 311 311 312 311 310 312 312 311 311 311 311 310 311 309 308 308 306 310
302 301 299 298 301 304 304 305 304 301 300 298 298 299 302 309 312 317 318 313 312 310 308 310 310 308 307 306 306 308 308 308 308 309 309 308 310 309 309 310 310 311 312 310 310 310 310 314 313 311 310 310 310 312 312 312 312 312 314 313 311 310 309 312 313 312 313 313 312 313 311 310 312 311 311 312 311 311 311 311 311 311 311 310 309 307 306 312
302 301 299 298 303 305 305 307 304 299 299 298 299 303 310 314 313 316 315 310 311 310 308 310 309 306 306 305 305 306 308 308 307 308 307 306 309 310 310 309 308 311 310 308 309 308 311 316 314 311 310 309 312 314 313 314 314 313 313 312 310 308 308 309 310 310 311 312 313 314 312 311 311 310 312 313 311 310 310 311 311 311 311 309 308 309 310 314
302 301 299 298 301 303 304 305 301 299 298 298 302 308 311 312 314 316 313 308 310 310 308 308 307 306 306 307 308 307 308 309 308 308 308 307 308 310 310 308 308 310 308 308 309 309 312 314 313 315 314 310 311 313 311 313 313 311 311 312 310 309 308 307 307 308 310 311 313 314 312 311 312 311 314 314 311 311 311 311 311 311 310 309 310 314 315 314
301 300 299 298 299 301 302 301 299 298 298 299 306 311 309 309 312 313 311 309 307 305 307 307 306 307 307 307 308 306 307 309 307 307 308 308 308 310 310 308 308 307 306 309 309 308 311 312 313 317 315 311 312 312 311 312 313 310 311 311 310 310 309 307 307 309 309 309 310 312 312 313 314 314 315 313 310 311 311 311 312 311 310 310 312 315 315 313
301 299 298 299 300 301 301 300 298 298 300 304 309 312 310 310 311 311 311 310 306 305 308 306 304 307 308 306 305 305 306 307 307 306 307 308 307 307 309 309 308 306 306 308 307 306 310 312 313 314 313 313 314 312 310 311 312 311 310 312 311 311 309 307 307 307 308 308 309 310 312 314 316 315 315 311 308 309 309 309 311 311 311 312 313 312 313 313
301 299 299 302 302 301 300 299 298 298 302 308 311 311 311 310 310 312 312 310 307 308 309 307 305 307 308 307 307 306 304 305 307 307 306 306 305 306 308 308 307 306 306 306 305 306 309 310 310 309 311 314 312 312 312 309 309 311 311 312 311 309 309 308 308 307 308 310 311 311 313 315 315 314 312 309 307 309 308 308 311 310 309 311 312 313 313 312
302 300 301 304 302 300 300 299 298 299 304 311 312 310 309 308 309 310 310 308 307 307 307 307 307 307 307 307 308 307 305 306 308 306 306 307 307 308 308 307 307 306 305 306 305 306 307 308 307 306 310 313 311 312 312 308 308 310 311 312 309 308 309 309 308 308 309 310 310 312 315 314 312 312 310 308 308 310 308 308 311 311 309 310 311 313 313 312
303 301 302 304 301 299 300 298 298 302 306 310 312 310 308 306 305 306 307 305 306 307 306 306 308 307 306 306 307 306 306 307 307 306 307 307 307 308 307 307 308 306 305 306 305 305 307 309 309 309 311 312 310 311 312 311 310 310 310 309 307 307 308 307 307 309 309 309 309 311 313 313 312 310 309 309 310 310 308 307 310 312 311 310 311 312 312 311
302 301 303 303 300 299 299 298 300 304 307 308 309 309 308 305 303 303 304 304 305 306 306 307 308 306 305 306 306 305 305 305 304 305 306 305 306 308 308 307 308 306 305 305 305 305 307 309 312 311 309 309 309 311 311 310 310 309 309 309 307 307 307 305 306 308 308 309 310 311 312 313 312 310 309 310 310 310 308 306 308 311 311 311 311 311 311 311
301 302 305 302 299 299 298 299 303 306 308 308 308 308 307 304 303 301 301 304 304 304 308 308 306 304 304 305 304 303 303 304 303 303 305 304 305 306 307 307 307 306 304 304 305 305 305 307 310 309 306 306 307 310 308 306 306 307 308 308 308 307 307 306 306 306 307 310 311 310 311 313 312 309 309 310 309 309 307 306 308 312 313 311 311 311 311 311
301 304 306 300 298 298 299 302 305 306 308 309 308 308 305 303 304 301 301 303 302 302 305 307 306 305 304 304 303 302 302 303 303 303 304 305 304 305 307 306 306 307 305 304 305 305 305 306 307 307 305 305 306 308 307 305 305 306 305 306 308 306 305 307 309 308 307 308 309 308 309 312 312 310 309 309 308 307 306 308 312 315 315 314 312 312 311 311
302 305 304 299 297 298 301 304 305 306 308 308 306 307 306 303 303 302 301 302 302 301 300 303 304 305 304 303 303 302 302 302 304 304 304 304 304 305 307 306 305 305 304 304 305 305 304 305 305 305 305 305 306 306 306 307 307 306 305 306 308 307 305 306 308 309 306 306 307 308 310 313 313 310 309 309 308 308 308 311 314 315 316 315 314 313 312 311
303 302 300 297 297 300 304 304 304 306 306 304 302 303 304 304 302 302 302 302 303 302 300 301 302 304 305 304 303 302 302 303 305 305 304 304 304 306 307 305 305 304 303 305 305 304 303 304 306 307 306 306 307 305 305 307 308 306 305 305 307 308 306 305 306 305 304 306 310 311 313 314 313 310 309 309 309 308 309 310 312 314 315 315 315 313 313 313
302 300 299 298 297 300 305 305 305 307 305 302 302 302 302 302 302 302 302 302 303 302 301 301 301 303 305 303 302 302 303 304 305 305 304 303 304 305 305 304 304 304 305 305 304 303 303 305 306 307 306 306 307 306 306 307 306 304 304 305 307 309 307 306 305 304 305 309 311 313 314 313 312 310 308 307 307 307 307 308 309 311 312 313 315 314 313 313
302 301 300 298 297 300 304 304 304 305 306 304 304 304 303 302 302 303 303 302 303 302 301 302 302 302 303 302 301 302 303 303 304 303 303 303 303 304 304 303 303 304 305 304 303 303 304 304 305 308 309 308 307 307 306 306 304 303 304 304 305 307 307 305 305 308 310 311 311 313 313 312 311 310 308 306 306 306 306 306 307 308 309 310 313 314 314 313
302 302 301 299 298 300 301 301 300 302 306 305 303 304 305 304 303 303 302 302 302 301 301 301 301 301 302 302 302 301 302 302 302 302 302 302 303 304 303 302 303 304 303 303 303 303 303 304 304 307 309 308 306 304 304 303 303 303 304 303 302 304 306 305 306 310 311 310 312 314 312 311 311 310 308 306 305 305 306 306 306 307 307 308 311 314 315 313
302 303 301 300 300 300 301 301 300 301 305 304 303 305 306 305 304 302 301 302 302 301 300 299 300 302 303 303 302 302 303 302 301 302 303 301 302 305 304 302 302 303 303 303 303 302 302 305 305 304 305 305 303 303 302 302 302 302 302 302 302 303 304 305 308 310 310 312 316 315 311 311 312 310 308 308 306 306 306 306 306 307 307 308 311 314 315 315
303 304 302 301 302 301 300 301 301 302 304 304 303 306 306 305 305 305 302 300 300 300 301 300 300 301 303 304 304 304 303 302 303 304 303 303 303 305 305 302 301 302 303 302 301 300 302 304 304 302 303 303 302 302 302 301 301 301 302 302 302 302 303 305 308 309 309 312 315 313 310 311 312 310 309 309 308 307 307 307 307 308 308 309 312 315 315 315
302 303 302 302 304 303 301 303 303 302 304 305 304 306 307 305 305 305 302 300 299 300 301 303 303 301 302 305 305 305 304 305 307 306 304 303 303 303 305 304 302 301 302 301 300 298 300 304 304 303 303 303 302 302 301 301 301 301 301 301 301 303 304 305 308 309 309 311 312 311 310 311 311 310 308 307 307 308 308 308 308 307 307 308 312 315 315 315
302 303 303 302 302 302 303 305 304 301 303 304 305 306 306 306 307 305 303 303 304 302 300 303 306 303 301 304 305 306 305 306 309 308 305 304 304 302 303 304 304 301 300 300 300 297 299 304 305 303 304 305 303 303 302 301 301 300 301 301 302 304 305 304 307 309 309 309 310 311 312 312 311 310 308 307 308 307 305 305 304 304 303 304 309 313 313 313
302 301 301 302 302 303 303 304 303 302 302 302 304 306 305 306 307 306 303 304 307 306 301 301 305 305 302 302 304 304 305 306 308 308 306 305 305 303 302 303 303 302 301 300 300 299 299 303 304 302 305 308 305 303 302 301 299 300 304 307 306 305 304 302 304 306 305 304 308 312 314 312 308 307 307 306 305 304 302 302 301 302 302 302 304 308 310 310
303 300 300 302 304 303 303 304 303 302 303 302 302 304 304 306 307 306 304 305 306 306 303 302 304 305 303 302 303 303 305 306 305 304 303 302 301 301 301 302 302 303 302 300 301 301 300 302 303 301 307 313 308 302 302 303 304 305 306 306 305 303 303 303 303 305 304 303 307 311 311 308 306 306 306 305 303 302 302 301 301 302 303 302 301 302 304 306
Wind_Speed
6 6 6 5 5 5 3 3 2 2 3 3 4 3 2 2 3 4 6 7 9 12 13 16 15 11 8 7 7 5 6 7 9 16 15 10 11 14 16 19 19 17 19 18 17 18 15 13 14 18 13 2 1 2 3 3 2 2 1 2 4 4 3 3 4 4 2 2 6 7 7 6 6 8 6 5 6 6 6 4 1 2 3 6 7 11 21 26
5 5 5 5 5 5 3 1 2 1 2 3 4 3 2 1 2 3 4 6 8 11 13 15 15 12 8 7 8 6 5 6 7 14 11 11 14 15 17 19 18 17 19 17 16 16 12 11 13 14 9 1 1 2 2 2 2 2 1 3 3 1 3 4 5 6 5 4 6 7 6 6 6 7 6 4 6 7 6 4 3 4 4 7 10 16 23 25
4 5 5 5 5 6 5 2 1 1 2 3 3 3 2 1 0 2 3 5 7 10 12 14 15 12 9 9 9 6 4 6 4 9 9 12 14 15 17 19 18 18 18 16 14 12 11 12 12 9 5 2 2 1 2 2 2 1 1 3 1 4 5 5 7 6 6 6 5 6 6 5 5 5 4 4 5 7 6 5 5 3 3 4 9 16 22 23
4 4 4 5 5 6 6 4 1 0 1 3 3 3 3 2 1 1 2 4 6 9 11 13 14 13 10 10 9 5 2 4 2 5 8 12 13 16 17 18 19 19 18 16 13 11 12 13 11 6 4 2 2 1 1 2 2 2 1 4 3 5 4 5 7 5 4 5 4 6 6 6 5 3 3 5 5 5 5 3 5 2 3 2 4 13 20 20
4 4 4 4 5 5 6 5 2 1 1 2 4 4 4 4 3 2 2 3 5 8 10 12 13 12 11 10 9 4 2 2 2 3 9 12 13 15 17 17 19 19 18 16 14 13 13 13 11 4 3 2 2 1 1 3 2 1 4 6 5 5 3 5 6 5 5 5 5 5 6 5 5 4 3 6 6 5 3 4 5 3 2 2 2 7 16 16
4 4 4 4 5 5 5 5 3 2 2 2 4 5 5 5 4 3 3 3 5 7 9 12 13 13 11 9 9 5 2 1 2 4 10 12 13 15 15 15 18 17 15 15 15 13 12 11 9 6 4 3 3 3 2 2 1 2 5 4 4 4 3 7 7 6 5 5 6 4 5 5 6 7 6 8 10 8 8 10 7 5 4 1 1 4 9 11
4 4 4 4 4 5 5 5 4 1 1 2 3 5 6 6 6 4 3 3 5 7 9 11 12 14 13 9 8 5 1 4 2 6 10 10 12 14 15 13 15 15 13 14 15 12 9 9 9 6 5 3 3 3 2 2 4 4 4 4 4 3 4 6 6 7 5 6 7 5 6 6 8 8 6 10 12 10 11 12 9 7 8 5 2 4 5 8
3 4 4 4 5 5 6 6 5 1 1 2 3 5 6 7 7 5 5 4 4 6 8 11 12 13 14 11 6 3 1 4 3 6 9 10 12 13 13 12 13 15 12 12 13 12 9 8 10 6 5 5 3 3 2 3 5 5 4 4 4 4 5 6 7 8 7 7 6 6 8 10 10 8 9 13 11 10 11 10 10 8 7 6 6 6 5 7
3 4 5 5 6 6 6 6 5 2 0 2 3 5 7 8 7 7 5 4 5 6 8 10 12 12 13 9 5 2 1 2 3 5 7 9 11 12 11 10 13 13 12 10 10 11 8 6 8 6 6 7 4 5 2 2 2 2 3 5 6 8 7 8 9 9 9 6 5 8 11 12 9 7 12 14 12 13 12 10 10 9 9 8 7 7 7 6
3 4 5 6 6 6 6 7 6 2 0 1 3 6 8 9 8 7 6 5 5 6 8 10 12 13 11 7 5 2 2 2 3 6 8 9 10 9 9 9 11 10 10 11 8 9 7 5 7 6 7 6 5 5 1 1 1 0 5 7 9 10 9 9 10 10 8 6 7 10 12 12 7 7 9 8 9 12 11 11 10 10 12 10 9 9 10 10
2 3 5 6 6 7 7 7 6 3 1 2 4 6 8 9 8 8 7 6 5 6 8 10 12 14 12 5 4 1 3 2 2 5 9 10 9 8 9 8 8 8 8 10 7 6 5 6 8 7 4 2 6 6 2 1 2 2 5 9 10 10 10 11 11 10 6 5 7 7 13 13 7 8 12 10 8 8 8 10 10 10 10 9 10 10 10 11
2 3 4 5 6 7 8 8 6 4 2 3 5 7 8 8 9 9 7 6 5 6 7 9 11 14 11 4 1 1 3 1 3 6 7 8 8 8 10 8 5 5 6 8 7 5 4 6 7 6 3 4 7 6 0 1 3 4 5 7 10 10 9 10 10 9 5 5 4 4 10 10 7 12 17 15 11 8 8 8 7 7 7 7 8 7 8 11
2 3 4 6 7 8 8 8 6 4 3 3 4 6 7 8 9 9 7 6 5 6 7 8 11 12 8 2 1 2 2 2 6 6 5 7 9 9 9 8 6 3 4 7 7 6 5 5 5 6 6 5 5 4 3 3 2 4 4 4 7 7 5 5 6 7 6 5 3 1 6 4 4 11 15 12 10 10 10 8 7 8 7 7 7 6 6 9
2 3 4 6 7 8 8 7 6 4 3 3 3 4 5 6 8 8 6 5 5 6 7 8 10 9 4 0 2 2 2 4 5 4 6 9 10 9 6 5 5 3 5 7 6 6 5 5 5 6 6 5 4 6 6 5 3 2 4 3 3 3 2 1 4 7 4 3 5 3 6 6 6 11 12 8 8 10 9 9 9 8 7 7 7 7 7 8
3 3 5 6 7 9 9 7 6 4 3 3 2 2 2 4 6 5 4 4 5 5 7 7 7 5 3 1 2 2 3 3 2 4 10 10 8 8 5 4 6 5 7 7 5 5 5 4 4 4 4 3 4 6 5 5 3 2 3 2 2 2 2 3 3 8 5 2 6 5 5 7 7 10 7 2 6 7 7 8 8 7 8 7 6 6 6 8
4 4 5 7 7 9 9 7 5 3 3 2 2 1 0 2 3 2 3 3 5 5 6 5 3 3 2 0 1 1 2 2 4 6 9 8 5 5 7 7 7 7 7 6 4 6 5 4 3 2 2 2 3 4 4 4 1 3 2 3 4 5 5 4 1 7 7 4 5 8 6 7 6 7 7 2 3 6 7 7 8 8 8 7 6 6 6 6
4 4 5 7 8 10 9 6 3 3 2 3 2 2 2 1 1 0 1 3 5 5 3 3 2 2 1 0 0 1 2 4 7 7 6 7 4 3 5 6 6 8 9 7 6 6 4 3 3 1 1 2 3 3 3 4 2 0 2 4 6 7 7 7 4 2 5 4 5 8 10 12 10 9 11 10 6 7 8 9 9 9 8 7 7 6 6 6
4 5 6 8 8 9 8 5 2 2 2 3 3 2 1 1 0 0 1 3 4 3 1 1 1 0 0 1 1 2 5 7 9 7 5 5 4 2 3 4 6 9 9 6 5 3 3 3 2 2 1 3 3 2 3 4 5 6 5 5 6 7 7 9 7 3 3 7 8 10 14 16 15 12 13 14 12 11 11 10 10 10 10 8 8 7 7 7
5 6 7 8 8 8 7 4 1 2 2 3 3 2 2 2 1 0 1 2 2 0 1 0 0 1 2 1 2 6 8 9 8 3 2 4 4 3 3 5 6 5 6 3 3 3 2 1 2 3 2 1 1 2 3 6 7 9 8 7 8 8 8 10 10 8 9 10 10 12 16 17 17 14 14 14 13 13 13 12 11 11 10 9 8 7 8 8
6 7 8 8 8 7 5 3 1 1 2 2 2 3 3 2 1 1 2 2 1 2 2 1 0 2 2 1 4 9 9 7 3 0 2 5 5 5 3 3 4 2 2 3 2 1 1 3 4 2 3 2 3 3 5 7 7 8 8 7 9 9 9 10 11 10 9 9 9 11 16 18 17 14 14 14 13 14 15 15 14 12 11 10 9 9 9 8
7 7 9 8 7 7 4 3 1 1 2 3 3 2 2 1 1 0 0 0 3 4 2 2 0 2 2 2 5 7 4 3 2 1 3 5 5 4 1 0 3 2 2 6 5 1 2 4 3 2 4 3 3 4 5 6 6 6 6 6 8 9 10 10 12 12 9 7 9 10 16 20 17 14 13 12 14 16 15 15 15 14 12 10 10 11 10 8
7 8 9 8 7 6 4 3 1 2 3 4 3 2 1 1 1 1 0 1 2 3 3 2 1 3 1 1 4 4 2 3 1 1 4 6 4 2 3 2 3 4 6 7 5 1 2 5 1 5 4 4 3 4 4 5 5 5 4 5 7 8 9 10 10 10 6 4 7 11 15 19 17 15 14 14 16 16 15 15 15 14 13 11 10 10 9 8
7 8 9 8 7 5 3 3 2 3 4 3 2 1 1 1 2 2 1 1 1 2 3 2 1 1 2 2 2 3 3 1 0 1 3 5 3 0 2 3 3 5 7 5 3 4 4 7 5 5 3 4 5 4 4 5 5 5 4 5 7 7 8 8 5 4 3 4 8 13 14 16 16 13 14 16 17 16 15 15 14 12 12 12 11 9 9 10
7 8 9 7 6 4 3 3 3 3 3 2 1 1 2 1 1 2 1 1 0 1 1 2 1 1 1 1 1 3 2 1 1 1 3 4 3 1 1 2 3 4 4 5 6 6 9 12 9 5 2 3 6 6 5 5 4 5 6 6 8 9 9 10 8 7 6 7 9 11 12 11 9 10 12 11 13 14 14 14 13 12 12 12 11 10 10 10
7 8 8 6 4 4 4 4 3 3 4 3 1 2 3 2 1 1 1 1 0 1 1 1 2 1 1 1 2 1 1 1 1 2 3 3 4 1 2 2 0 2 4 7 8 7 10 8 2 2 4 4 4 6 5 4 3 5 7 8 9 10 11 12 12 11 8 6 4 4 7 6 3 7 9 6 6 9 10 12 14 13 12 11 11 11 10 9
7 9 7 5 4 6 5 2 3 5 4 2 2 3 3 2 1 1 0 0 1 1 1 1 2 2 1 1 2 0 1 1 1 2 1 2 2 2 2 1 1 2 4 5 5 4 5 3 3 0 4 4 4 7 6 5 3 4 4 5 6 9 12 13 12 9 6 6 2 4 4 8 4 5 10 8 9 10 9 11 14 13 11 11 10 10 10 8
8 9 6 4 5 8 4 1 5 6 2 2 5 4 3 2 1 1 0 1 1 1 1 1 1 2 1 1 1 2 2 2 1 1 1 3 2 1 2 2 1 2 2 3 3 2 3 3 1 1 1 3 5 6 5 6 4 4 2 3 6 9 13 14 11 7 6 7 5 6 6 8 8 5 5 7 9 11 10 10 11 11 12 12 11 10 10 8
9 8 6 5 8 10 5 3 5 4 1 3 6 5 3 2 1 1 1 1 1 0 1 1 1 1 1 1 1 2 3 1 1 1 2 4 4 1 3 4 2 4 2 2 3 3 1 4 3 2 2 4 5 4 4 6 5 6 5 7 8 10 14 13 9 7 7 6 6 6 7 5 8 4 2 5 9 9 9 8 8 9 11 13 12 11 11 9
8 8 6 5 9 10 6 4 4 3 3 5 6 5 2 1 2 1 1 1 1 1 1 1 1 1 2 1 2 2 3 1 1 1 3 3 4 2 3 2 2 6 4 5 7 8 5 2 2 3 2 4 5 4 3 5 7 7 7 8 8 9 13 11 7 6 5 4 6 5 8 4 8 7 4 4 6 6 6 6 7 8 6 8 11 13 12 9
8 7 5 5 7 8 5 3 4 4 5 6 7 5 2 1 1 2 0 2 1 1 0 2 1 1 1 1 1 1 2 2 1 1 2 2 2 2 2 1 1 5 4 5 9 12 11 2 4 3 4 4 3 5 6 8 7 6 7 7 8 8 10 6 2 1 1 5 7 6 11 8 6 4 1 2 3 6 7 8 9 10 10 8 5 11 13 10
8 6 5 6 7 8 5 4 7 7 7 8 7 4 1 0 1 1 1 1 2 1 1 2 1 0 1 1 0 0 2 2 0 1 1 1 0 2 2 2 1 2 1 2 4 9 12 5 2 1 2 1 3 5 7 7 4 3 3 5 6 6 5 2 1 2 1 4 4 3 9 8 6 4 1 5 8 9 9 10 12 11 10 11 10 7 10 12
7 6 7 9 9 9 6 4 8 9 9 8 6 3 1 1 1 2 2 1 1 1 2 2 1 1 1 2 1 1 1 1 1 1 1 1 1 2 2 1 2 3 4 3 4 8 9 4 3 1 1 0 3 5 4 2 3 2 3 4 6 6 4 4 2 1 3 4 1 1 3 4 8 7 4 10 12 12 11 12 13 12 10 11 13 9 6 11
7 5 7 9 10 11 7 4 9 12 10 8 4 1 1 0 2 2 2 1 1 1 2 1 1 1 1 0 1 0 0 1 1 1 1 0 1 1 3 2 0 2 1 3 6 7 6 2 3 1 1 2 2 3 4 1 1 3 3 3 3 4 6 7 5 4 5 5 1 4 4 4 7 4 3 7 12 13 12 13 12 11 12 12 8 2 7 10
6 5 6 8 10 11 7 6 11 13 10 6 2 0 2 2 2 0 1 2 1 1 2 1 0 1 1 0 1 1 0 1 0 1 1 1 1 1 2 2 2 2 1 2 4 2 2 4 0 2 0 2 3 3 3 3 5 3 0 1 1 0 1 4 4 4 7 9 5 2 4 3 4 1 1 5 12 11 9 11 7 5 8 7 6 8 9 9
5 5 5 6 9 10 8 8 12 13 9 4 1 1 3 3 2 0 1 2 1 1 2 2 1 0 1 1 1 1 1 1 0 2 2 3 1 1 2 1 0 1 1 1 3 1 2 6 4 3 3 5 3 3 1 2 4 2 1 1 1 2 3 3 6 7 9 9 6 2 2 2 3 1 0 7 13 11 11 11 5 5 6 3 9 9 8 9
5 5 4 5 7 9 9 11 13 11 6 2 2 3 4 3 1 0 1 1 2 2 2 1 1 0 2 1 1 1 1 0 2 2 1 2 1 1 2 1 1 2 2 2 2 3 2 6 5 3 1 4 3 1 2 1 1 1 1 1 2 2 4 2 6 7 7 6 4 2 2 4 3 0 3 11 14 13 14 12 5 5 6 6 6 6 7 7
6 5 5 5 7 9 11 12 13 10 3 1 3 4 2 1 0 1 1 1 1 2 3 1 0 1 1 0 1 2 1 0 1 1 1 0 1 1 2 2 2 2 2 2 1 2 0 7 10 6 2 1 1 2 1 1 1 1 2 4 3 1 3 0 4 4 4 5 4 2 4 5 5 4 8 15 15 13 13 11 6 4 5 5 3 5 7 7
7 5 4 6 8 9 12 13 12 7 1 1 3 3 1 1 1 2 2 1 1 2 2 2 1 2 1 1 1 2 2 0 0 0 1 1 0 1 3 2 2 1 2 2 1 1 2 5 8 2 2 2 2 2 2 2 1 1 2 3 2 1 1 1 2 3 4 5 5 4 6 4 3 6 11 14 15 14 13 11 8 4 4 4 3 5 7 6
7 4 2 6 9 9 13 13 9 3 1 2 4 3 1 1 1 2 2 2 1 1 2 2 0 1 1 1 1 2 2 0 2 1 1 0 1 1 1 1 1 1 3 3 1 0 2 2 5 0 3 7 3 1 2 3 2 2 2 2 1 1 2 2 1 2 2 4 4 5 7 3 2 6 10 12 15 14 11 10 8 3 4 5 4 4 6 5
7 2 1 7 11 12 14 11 5 2 2 3 4 2 0 1 2 1 3 3 1 1 1 1 1 1 1 1 1 1 2 1 1 0 1 0 1 0 1 2 3 3 1 1 0 0 1 1 4 4 7 8 3 1 1 1 1 1 1 1 2 1 2 2 1 1 1 3 4 5 6 3 2 5 8 12 14 13 10 10 7 1 4 7 5 5 5 5
7 1 1 9 13 15 14 7 2 3 3 2 1 1 0 1 3 2 2 3 2 1 1 1 1 1 1 1 1 0 1 2 2 1 2 2 1 1 1 1 3 5 2 1 1 2 1 1 4 7 7 6 4 0 2 3 2 1 1 0 1 1 1 3 1 1 0 2 3 3 4 3 2 4 6 9 10 9 10 10 3 2 5 6 6 5 5 4
5 1 2 10 17 17 10 3 1 1 2 3 1 2 1 2 3 2 2 2 2 1 1 1 1 1 1 1 1 2 1 2 3 2 2 3 1 1 1 1 3 4 2 0 1 1 0 1 3 6 6 9 7 1 3 2 2 1 1 2 2 1 1 1 2 2 2 3 3 2 3 3 3 4 6 7 9 9 8 7 6 5 6 5 5 5 5 4
2 1 3 8 15 13 5 3 3 1 1 1 1 2 1 1 2 2 2 1 1 2 1 0 1 1 1 0 2 3 2 1 3 3 2 2 1 1 3 4 4 3 1 0 1 1 0 1 2 5 7 6 3 2 3 4 3 1 1 2 3 1 2 3 1 2 3 3 3 2 2 3 3 6 7 6 9 11 10 11 10 7 6 6 6 5 4 5
3 3 3 5 11 9 3 3 4 5 4 1 1 1 1 1 2 3 3 4 2 3 2 1 1 1 0 1 1 3 3 1 2 2 1 1 1 1 3 4 3 2 1 0 0 0 1 1 1 4 6 5 4 3 3 3 3 3 2 1 1 2 2 2 1 1 1 2 5 4 2 4 5 6 8 8 9 11 11 11 9 8 7 6 5 4 4 6
4 3 3 4 8 6 2 1 1 3 6 4 2 3 1 1 2 1 2 4 2 1 2 1 0 2 2 1 1 1 1 2 2 1 1 1 2 0 1 2 2 1 1 1 1 0 1 1 2 2 1 3 4 5 4 4 6 4 4 5 4 2 2 2 1 1 1 4 6 3 2 6 8 8 10 11 11 11 11 11 10 8 9 8 6 4 5 5
4 2 3 3 3 4 3 2 2 2 5 6 2 3 5 3 1 1 1 3 3 2 3 1 1 3 2 1 1 1 3 4 2 1 1 2 2 1 1 1 2 3 3 1 3 1 1 2 3 5 6 5 7 9 7 6 7 7 9 10 9 4 1 1 2 1 2 5 4 1 2 9 11 10 11 11 11 10 10 10 9 8 8 9 8 4 4 5
3 2 5 5 2 3 4 3 4 3 3 7 5 4 8 6 3 1 1 1 3 3 2 1 2 3 4 4 4 4 4 3 1 1 3 4 2 1 2 2 3 4 4 1 2 1 1 4 5 7 10 10 10 14 13 8 8 9 10 11 11 9 4 3 3 2 1 3 3 2 6 8 9 9 9 9 9 8 8 8 7 7 6 6 7 4 4 5
3 1 5 6 2 5 7 6 8 7 4 6 5 4 8 8 6 5 1 1 1 3 2 1 3 7 7 6 5 3 3 3 3 3 4 4 3 2 2 2 2 4 4 1 1 0 1 4 4 4 8 11 12 15 14 9 8 8 9 10 11 11 8 5 5 3 2 1 4 6 9 8 8 9 8 8 7 6 7 7 6 6 5 5 5 4 5 4
2 2 2 4 1 5 8 6 9 11 7 5 4 3 7 10 9 6 4 3 1 4 4 4 6 9 9 7 5 4 5 4 4 5 4 3 3 3 2 0 1 2 3 1 0 1 0 3 3 3 7 11 10 11 9 6 5 7 8 9 9 11 10 7 6 5 4 5 7 7 9 8 6 5 6 7 6 5 5 5 5 5 5 5 4 4 4 3
3 1 2 2 0 3 5 5 9 10 7 4 4 5 6 9 10 6 4 6 5 4 5 7 7 8 10 9 6 5 7 4 3 4 5 4 3 3 2 2 2 2 2 2 1 1 0 1 2 1 5 8 4 2 3 3 4 7 8 8 8 10 8 5 4 4 4 6 7 6 6 6 3 3 5 6 5 5 4 3 4 4 4 5 4 3 3 3
5 2 1 2 2 4 5 5 7 7 6 6 6 6 6 9 12 8 4 6 7 7 10 12 8 6 7 8 9 11 9 2 5 4 5 4 4 3 2 2 4 4 3 3 2 1 1 2 3 2 3 6 3 1 4 4 1 4 9 8 6 5 3 3 4 3 3 4 6 5 4 4 4 4 5 5 4 5 5 4 4 3 4 5 3 3 3 2
10 3 1 2 3 5 5 5 6 5 6 8 9 8 7 8 9 9 5 4 5 7 11 12 9 7 5 9 12 12 7 4 5 5 5 4 3 2 2 3 4 4 4 3 2 2 2 2 4 2 2 6 5 4 6 6 5 3 6 4 3 2 3 4 4 3 4 3 2 3 2 4 5 6 6 7 7 7 6 5 4 4 4 5 4 4 3 1
Wind_Direction
62 60 53 48 56 66 75 108 112 136 153 158 161 158 143 94 51 40 30 24 17 10 9 10 12 11 8 9 359 345 354 358 33 45 46 29 8 6 2 2 3 10 13 4 357 357 0 1 355 344 329 271 1 343 332 336 356 294 236 217 250 251 265 343 3 6 354 20 15 9 22 359 344 357 4 350 301 273 267 254 194 178 122 105 123 141 153 156
57 57 49 40 50 59 45 98 124 134 163 168 173 179 180 129 59 36 23 19 14 7 7 9 10 8 1 6 359 337 338 331 19 53 41 10 11 10 5 6 7 12 9 355 353 353 344 341 331 327 323 282 39 347 315 359 0 289 283 265 250 313 315 332 7 23 18 11 1 348 1 2 336 339 353 337 311 307 292 268 257 212 139 111 126 138 150 157
56 51 43 37 42 48 29 5 128 98 184 185 181 194 206 193 58 11 10 9 7 6 5 7 7 4 356 355 353 344 335 310 2 54 23 3 10 8 6 7 13 17 6 346 343 340 324 318 307 307 312 300 72 344 313 10 335 340 24 266 267 20 331 347 28 38 22 7 352 334 339 334 309 327 346 324 306 300 289 287 288 248 124 103 133 144 154 160
57 46 35 32 35 38 24 4 330 82 227 210 202 211 224 233 257 315 346 355 357 4 3 6 6 1 355 348 355 10 322 303 31 50 3 360 4 4 6 7 15 18 3 348 345 340 331 326 313 298 287 283 118 197 322 41 344 3 330 259 323 5 332 358 27 37 27 8 336 321 319 306 305 344 327 298 293 273 253 275 311 356 79 67 144 157 163 165
53 43 27 24 31 26 17 7 327 275 252 225 218 227 233 243 252 279 318 340 346 356 360 4 3 359 356 342 350 6 293 311 84 31 351 356 358 1 3 7 16 12 1 355 356 356 352 347 339 326 285 311 53 20 45 55 6 318 257 259 321 352 326 329 352 13 19 349 319 312 302 302 323 327 284 277 268 252 259 300 322 355 93 84 43 163 171 174
42 30 19 15 25 19 11 5 331 285 257 233 225 235 240 246 250 260 290 318 333 346 355 1 359 356 353 340 337 331 312 27 94 352 344 349 352 358 1 6 10 3 360 1 5 6 0 358 359 4 328 321 44 15 27 54 357 272 264 271 339 357 308 313 326 339 349 314 295 292 294 310 304 283 261 257 253 250 272 284 290 298 278 179 111 177 185 192
30 17 12 7 15 14 6 355 334 304 238 246 234 238 243 245 248 253 270 299 320 334 348 357 357 353 348 345 336 307 352 62 48 345 344 350 351 355 3 9 2 355 1 4 7 3 352 4 7 360 322 319 56 3 0 354 263 237 271 291 340 343 288 295 300 299 295 275 271 278 288 279 265 268 253 243 247 249 259 273 280 286 289 288 248 217 207 213
25 8 2 2 9 6 358 348 337 339 219 249 241 241 243 242 245 250 258 283 308 323 341 351 354 353 347 348 344 290 68 60 29 348 344 352 352 354 4 7 355 353 1 6 10 358 352 14 7 359 333 342 22 328 337 324 269 222 260 313 329 304 283 285 283 279 273 266 271 275 270 257 249 258 262 250 247 252 251 264 277 278 277 277 267 244 226 222
18 2 359 2 3 356 349 340 331 333 267 249 249 246 244 240 241 245 252 269 297 317 334 344 350 353 345 341 331 296 72 47 349 348 347 347 349 356 359 355 352 353 357 1 10 6 7 16 1 358 327 318 308 311 0 11 305 211 297 325 305 288 285 284 278 271 269 268 269 267 262 258 253 259 263 250 237 244 246 251 260 267 261 249 249 246 241 235
13 1 0 3 0 351 344 334 324 319 267 254 259 254 246 238 236 238 246 259 284 312 328 342 346 349 349 339 316 299 97 60 337 347 351 350 349 353 352 349 352 352 349 350 9 22 15 355 343 328 304 299 290 298 154 149 337 291 298 299 283 278 276 269 266 267 274 280 268 267 269 266 258 255 259 245 228 230 234 243 241 246 254 245 238 237 235 236
9 0 356 359 357 346 341 333 322 312 251 254 261 256 248 237 232 234 239 252 277 304 324 342 345 347 346 329 313 321 93 56 327 341 345 349 348 336 341 349 350 351 347 341 0 29 4 340 337 312 286 335 315 291 181 117 340 316 302 295 276 269 264 252 252 258 262 267 254 261 275 272 258 251 255 250 236 217 212 228 229 229 241 241 232 228 227 227
352 351 354 352 349 344 339 330 321 310 270 261 261 256 251 238 231 232 235 245 271 299 323 339 346 348 337 304 294 87 94 52 299 330 336 339 338 321 334 351 350 347 344 330 340 8 342 332 334 303 293 338 311 294 303 45 329 299 293 291 285 281 265 242 234 231 216 233 243 283 285 268 230 235 248 247 235 225 221 222 228 234 241 251 243 231 226 218
343 344 351 346 346 345 338 328 319 313 293 278 268 258 251 239 231 229 233 243 269 296 319 337 344 345 332 293 100 98 107 301 312 340 341 334 332 314 319 345 353 338 331 321 315 328 321 318 320 297 302 308 298 326 326 255 255 284 265 261 290 299 280 244 215 198 204 218 189 302 288 278 242 245 252 246 216 213 230 235 240 245 243 247 249 246 240 226
326 330 336 339 342 342 337 329 321 318 311 303 291 269 250 236 231 228 231 247 272 294 319 336 339 336 317 262 94 78 348 322 331 343 319 326 332 316 303 329 342 315 315 315 298 303 304 303 302 288 285 262 278 331 314 253 203 255 279 253 266 287 290 261 181 171 188 195 150 169 266 276 288 277 267 239 194 195 216 230 233 237 238 235 236 238 239 238
297 310 321 328 334 338 336 328 319 314 320 327 329 302 256 228 225 224 230 255 276 294 321 336 346 338 290 219 89 38 359 337 327 307 311 328 333 323 324 318 311 297 304 311 301 297 290 289 287 285 288 236 260 303 291 263 191 180 290 279 239 263 297 293 178 165 181 207 169 181 264 270 267 283 287 174 160 189 215 230 231 234 237 238 240 235 237 237
279 293 307 318 328 336 334 324 318 320 342 9 27 36 159 217 216 218 234 264 283 297 327 341 359 349 296 263 109 63 31 317 311 316 318 333 328 312 325 312 293 284 288 293 298 289 269 267 267 272 302 258 249 270 279 289 222 157 238 279 291 306 313 318 209 179 200 226 193 199 253 274 265 293 316 0 145 195 223 239 240 241 239 236 244 241 242 244
274 290 303 316 326 334 331 325 327 340 14 55 55 73 100 117 189 203 262 279 289 294 327 326 306 324 287 292 170 71 23 309 314 324 313 327 345 319 317 305 293 294 283 264 269 277 249 234 239 225 262 251 251 268 294 307 323 334 246 279 304 307 307 306 303 215 201 236 241 231 252 266 266 274 283 283 265 235 233 239 242 243 241 231 235 241 234 245
280 294 305 316 323 330 326 320 335 7 51 80 74 70 65 6 281 327 295 294 300 290 322 311 281 258 226 343 331 348 344 308 305 316 310 331 355 339 306 290 297 307 297 264 237 231 215 206 226 270 251 221 241 273 300 308 316 312 297 297 298 294 295 288 288 303 276 268 267 265 267 269 271 270 268 270 264 256 248 240 241 240 240 232 226 235 230 234
281 287 301 313 317 324 318 303 333 43 79 94 77 17 328 297 246 249 261 269 303 23 84 44 6 272 276 28 348 318 318 305 303 313 310 325 322 299 276 266 278 300 312 297 197 182 214 245 240 273 289 198 287 332 298 301 305 300 299 294 285 283 277 274 274 282 289 283 272 270 273 273 274 270 267 267 260 259 259 250 242 237 237 236 228 229 228 228
274 279 297 308 308 316 307 277 307 63 97 89 51 335 309 284 231 169 205 223 99 106 134 119 105 265 274 33 335 321 314 293 287 187 292 316 312 296 251 234 263 251 261 301 277 158 49 305 262 277 350 5 351 332 286 291 298 293 295 286 280 282 274 271 273 273 277 280 269 264 270 272 273 270 266 269 266 260 258 252 245 238 236 234 232 229 226 229
266 276 295 300 301 308 287 250 235 109 115 83 50 319 314 350 303 327 336 127 91 109 144 104 107 252 288 332 328 336 328 263 243 148 321 323 300 293 74 110 308 287 276 309 307 94 101 276 277 18 356 341 322 297 285 288 291 288 292 291 283 278 273 270 268 267 267 271 270 269 273 273 270 270 265 262 265 259 252 250 246 241 240 234 228 228 225 229
262 278 292 291 295 297 261 228 183 145 123 87 35 330 30 45 228 168 9 293 105 133 165 135 185 220 207 295 326 344 306 254 218 167 341 332 281 289 21 353 320 318 312 311 299 324 298 261 310 44 359 328 293 263 264 261 268 273 272 281 279 276 277 268 257 259 255 249 273 279 278 276 272 266 259 251 251 252 247 245 246 243 243 241 232 223 217 219
261 280 289 286 290 281 236 195 170 152 132 100 13 336 104 123 189 178 231 273 141 182 189 158 210 239 149 174 336 333 288 300 315 179 359 333 286 337 352 319 332 319 306 314 322 330 298 267 311 7 351 311 295 268 258 249 251 256 250 263 270 277 286 277 258 243 224 228 271 284 279 277 278 270 260 252 248 252 252 245 242 239 238 240 237 222 209 210
263 282 286 285 284 259 211 166 153 150 140 121 57 145 157 168 190 205 236 277 124 158 136 117 174 303 159 179 314 303 287 319 234 30 23 329 299 102 341 336 353 305 299 350 341 297 269 270 294 321 291 296 303 295 283 263 261 255 245 254 264 272 274 276 294 301 282 259 254 272 281 277 267 257 257 252 241 243 246 245 241 236 234 236 239 230 214 205
268 282 283 282 270 219 167 150 169 164 132 118 137 158 160 184 214 231 250 298 336 107 74 123 162 230 235 200 237 268 333 291 210 46 24 321 311 332 320 351 62 282 329 347 324 282 272 280 303 293 290 316 305 286 268 239 265 271 247 242 254 274 280 285 303 309 300 287 238 234 286 287 217 233 265 275 242 234 229 232 235 234 231 229 232 231 224 207
268 280 280 269 230 173 147 149 189 169 132 133 186 168 164 196 217 234 258 312 260 179 163 156 157 206 193 177 229 269 21 248 99 51 346 283 296 305 301 312 167 272 328 333 302 276 266 263 112 121 305 320 293 278 258 222 242 271 240 232 254 282 289 290 299 300 293 303 274 160 253 288 277 252 269 272 261 254 240 228 226 227 225 222 222 219 224 210
266 276 269 242 192 165 151 147 170 163 147 183 187 175 177 188 175 198 78 24 269 223 153 144 134 203 199 162 257 317 307 241 118 76 264 253 254 225 273 294 272 274 331 5 308 255 221 252 199 116 344 313 286 273 234 186 200 257 283 337 309 295 291 289 292 287 279 293 274 187 205 279 288 258 246 251 254 253 249 239 229 221 214 214 214 209 215 201
263 268 258 227 189 171 149 128 159 174 190 175 171 176 184 182 233 239 74 6 255 178 121 155 134 192 201 144 187 286 299 276 130 160 206 244 253 196 250 261 246 271 299 58 291 270 288 304 274 236 313 289 253 242 203 173 211 270 323 339 313 293 287 284 282 273 269 289 281 204 181 256 278 265 256 260 258 257 253 253 253 241 218 205 201 202 207 190
258 260 251 219 192 181 159 141 173 191 180 161 157 164 158 186 266 14 62 287 225 117 65 128 128 179 188 170 170 237 285 276 105 145 170 240 262 236 262 262 241 272 256 190 238 271 289 310 156 174 239 256 249 263 246 210 238 283 328 320 295 281 277 271 263 266 261 264 271 212 168 217 278 280 289 272 260 280 292 288 290 288 266 216 195 195 199 181
252 254 239 199 185 187 184 190 200 183 161 155 151 155 146 191 322 43 353 257 135 123 256 127 140 200 234 303 155 177 257 224 136 112 180 219 257 235 277 348 242 260 255 210 229 258 268 251 110 162 219 242 285 296 264 237 250 308 330 300 285 273 267 267 258 285 272 250 259 216 182 201 279 297 351 19 334 326 321 310 304 310 318 308 235 195 190 174
244 246 219 186 175 179 184 204 202 182 159 153 148 154 164 320 48 78 230 239 90 163 203 106 85 320 52 25 66 273 286 246 141 42 257 259 265 255 283 354 310 271 314 261 242 273 278 260 139 193 221 265 306 290 259 228 223 308 312 294 308 293 267 298 69 101 266 267 285 231 186 197 249 260 41 8 342 330 313 297 293 291 294 303 295 242 190 162
237 238 213 195 184 180 186 200 187 170 157 156 153 160 135 1 240 206 222 293 31 203 173 106 91 18 43 111 192 273 329 281 278 67 32 321 307 329 357 355 330 4 11 348 328 317 298 252 165 117 56 214 271 295 293 192 173 265 302 322 336 334 336 343 334 299 273 267 329 81 153 207 249 259 335 352 334 318 300 287 284 282 270 272 284 274 182 145
229 229 213 204 195 189 192 184 169 163 158 156 163 202 93 3 238 208 192 217 292 192 124 93 130 89 24 102 211 292 344 262 277 111 112 320 280 3 25 344 1 81 30 319 335 331 317 331 99 101 305 184 196 295 323 328 299 314 333 348 339 341 343 330 314 314 293 281 317 121 156 256 270 269 337 337 315 303 298 289 273 265 261 253 256 216 136 130
218 217 214 206 199 196 194 175 165 160 154 153 169 109 114 198 244 275 189 208 250 245 120 99 103 154 196 14 46 43 318 245 276 303 198 153 275 239 68 0 26 90 169 298 345 7 323 316 232 163 226 137 181 249 276 302 310 313 40 56 318 310 340 309 304 318 304 297 305 141 164 281 306 284 203 308 308 307 321 315 288 271 273 239 153 119 119 120
202 201 199 191 196 201 192 176 169 159 153 153 147 152 173 216 235 228 207 182 150 195 136 105 55 332 215 127 82 81 84 168 245 315 214 177 266 314 78 78 38 11 69 48 340 338 238 259 229 160 145 149 183 241 242 324 311 289 150 109 311 160 154 252 269 270 280 292 297 217 191 300 303 238 205 330 323 331 348 341 354 30 1 72 119 119 117 119
172 171 171 177 197 199 185 177 171 162 160 143 146 200 219 223 216 157 197 135 137 146 127 111 75 38 237 152 128 212 99 177 305 336 239 177 121 27 38 76 93 14 64 109 337 353 288 268 282 319 259 165 176 229 134 103 322 279 225 269 268 167 144 246 275 264 261 276 287 244 269 320 326 310 0 343 336 344 353 346 4 53 39 58 96 113 114 119
166 168 167 183 200 191 177 174 169 165 178 162 184 221 221 179 329 11 80 94 114 103 93 117 113 111 240 226 148 188 139 335 294 326 283 153 89 101 104 78 37 43 94 122 85 79 192 280 287 291 274 174 52 30 115 162 325 322 270 281 286 142 128 204 295 294 289 290 286 288 318 341 359 347 340 342 338 344 352 347 353 45 67 65 70 94 103 111
168 173 160 181 196 184 170 168 165 165 187 175 216 243 188 168 329 27 73 95 61 75 113 189 214 124 168 227 149 148 133 41 329 300 293 285 240 157 129 105 357 32 108 99 57 101 134 291 293 243 138 336 7 48 351 294 279 315 282 289 319 9 323 310 303 308 324 310 294 319 335 352 16 335 331 334 332 341 349 344 343 16 67 66 62 86 96 108
170 177 165 180 188 178 165 162 159 164 202 183 215 236 170 121 34 42 0 353 40 104 159 200 220 97 152 192 112 103 127 340 340 353 308 34 146 220 159 130 78 136 150 134 103 51 132 285 293 84 26 333 325 104 4 326 312 336 342 331 356 246 256 274 319 321 317 299 295 323 333 357 25 327 324 324 326 339 344 330 331 355 87 79 75 103 116 135
185 194 163 174 176 169 160 156 153 181 200 187 199 212 151 86 113 75 0 1 30 101 146 159 132 142 192 167 128 79 130 183 296 277 239 216 135 295 6 84 141 157 161 29 24 281 111 170 261 293 342 338 323 131 83 60 320 321 331 314 318 261 238 251 244 187 256 296 309 317 315 338 5 325 324 328 330 338 330 313 312 313 115 113 139 165 148 150
194 237 165 167 165 160 154 150 180 192 199 226 179 149 211 124 127 116 39 24 11 35 68 35 66 134 158 137 140 144 145 191 211 216 251 235 137 135 312 77 137 143 127 351 233 215 206 163 260 298 326 316 291 222 123 147 173 252 258 251 345 335 324 330 327 137 70 293 287 298 305 308 316 325 333 332 329 323 309 306 308 93 87 115 151 153 131 133
192 225 148 163 165 162 156 157 189 160 206 240 185 91 147 150 121 118 103 48 14 21 46 26 45 115 175 198 145 145 183 214 185 182 251 241 156 136 210 136 112 136 157 311 146 200 281 158 266 282 273 277 288 349 70 94 156 241 290 132 124 122 100 326 306 325 329 284 258 251 276 275 283 336 347 335 328 322 322 346 27 55 46 60 86 93 107 117
175 130 117 167 173 170 169 177 175 188 228 251 28 60 63 119 120 120 141 164 154 141 71 54 196 212 220 197 117 155 189 196 173 184 224 247 294 96 142 137 126 139 164 315 99 59 17 161 279 286 272 283 309 72 39 34 71 20 303 164 155 161 178 199 229 344 315 293 306 295 276 289 325 354 356 346 340 344 358 9 16 23 20 39 63 69 90 98
133 112 95 180 186 184 199 189 186 203 193 111 58 126 8 333 157 144 170 193 187 161 165 201 220 199 176 8 102 171 188 156 176 200 175 233 286 38 115 137 145 143 126 20 84 131 245 183 78 336 322 335 357 3 354 9 15 333 292 208 142 160 208 220 149 70 254 298 343 337 296 304 323 346 354 355 356 358 1 359 2 10 5 15 50 60 63 76
130 102 81 163 194 207 240 168 171 204 175 146 140 159 154 245 177 145 169 180 193 161 151 183 320 88 75 13 37 59 241 199 180 141 60 247 235 143 69 107 126 98 70 13 353 157 247 260 125 93 4 309 310 313 319 335 336 322 305 320 326 282 233 257 262 223 267 327 340 330 276 298 312 337 350 353 359 359 352 351 356 359 355 356 13 47 62 67
150 141 115 135 200 238 262 138 148 238 176 155 161 176 176 180 161 338 290 168 167 121 98 77 46 88 96 155 152 220 237 212 194 21 302 242 220 144 114 134 116 97 98 16 321 320 286 267 209 183 196 222 254 271 290 326 324 300 302 312 311 301 246 232 280 268 284 313 313 237 299 309 316 339 348 347 353 351 342 346 348 344 351 351 344 5 69 80
193 183 161 153 164 224 251 235 201 238 186 160 170 182 181 179 141 138 289 244 165 146 112 106 140 158 177 174 175 204 203 185 198 262 227 221 222 82 94 112 111 123 133 141 306 310 272 267 233 211 223 236 253 269 284 303 289 279 293 300 299 304 293 237 265 269 272 317 298 309 334 320 313 331 338 331 337 339 331 333 331 327 335 331 317 334 73 97
214 191 164 172 166 181 207 221 200 205 206 178 170 160 175 181 169 168 187 24 135 176 171 177 209 208 198 178 169 171 153 153 207 229 215 202 197 149 111 68 82 136 139 91 344 38 250 267 242 209 244 251 253 265 275 278 269 264 270 277 288 299 289 256 258 251 170 201 270 298 318 312 306 321 327 319 320 318 309 308 308 310 315 317 326 6 56 72
208 336 178 186 214 179 182 176 168 182 206 202 184 176 180 185 187 179 136 107 189 225 200 203 222 213 207 204 193 168 163 176 215 226 212 180 177 178 168 76 60 145 156 128 339 348 59 249 229 220 268 270 260 261 260 249 257 266 263 267 278 283 274 254 250 247 222 233 252 276 296 292 284 301 312 310 303 287 282 293 304 311 321 336 6 43 56 48
194 298 188 164 18 180 168 139 149 174 195 203 214 210 184 184 189 177 137 152 175 185 190 214 214 189 195 210 213 211 205 181 153 189 183 159 170 192 190 163 130 163 211 173 121 345 43 230 236 230 289 293 290 281 260 234 252 275 280 282 280 284 279 251 248 256 242 261 275 284 297 291 257 253 291 297 294 293 292 296 306 316 332 343 9 50 57 62
229 331 179 164 162 167 154 137 148 167 183 197 211 197 182 198 192 169 164 196 183 163 183 204 195 151 172 203 216 232 232 169 96 128 141 137 162 173 171 148 130 143 194 182 141 146 176 268 300 6 331 296 278 315 311 327 352 283 291 293 280 285 296 257 253 240 215 267 301 315 321 303 295 312 316 308 314 329 330 328 328 344 351 343 359 36 40 79
221 307 296 186 166 167 160 147 152 166 189 202 205 192 190 205 180 151 167 223 204 180 186 188 166 129 156 203 217 227 220 129 109 114 102 96 111 117 117 117 116 132 164 167 162 173 178 265 301 12 343 283 280 295 308 346 23 315 286 273 226 245 304 293 273 233 211 222 284 302 292 285 304 329 333 331 342 346 339 332 334 344 342 339 359 14 356 357